Location: Petrozavodsk
(61.7955°N, 34.3748°E)
Time: 21:35:09
(UTC+03:00)

Envisat - Pass Details

Date: 27 March 2023
Orbit: 763 x 765 km, 98.2° (Epoch: 31 May)

Event Time Altitude Azimuth Distance (km) Brightness Sun altitude
Rises 02:53:14 0° 23° (NNE) 3,249 7.7 -21.5°
Reaches altitude 10° 02:57:08 10° 53° (NE) 2,317 6.5 -21.2°
Maximum altitude 02:59:11 12° 77° (ENE) 2,156 6.0 -21.1°
Drops below altitude 10° 03:01:14 10° 101° (E) 2,310 5.8 -21.0°
Sets 03:05:06 0° 131° (SE) 3,230 6.2 -20.7°
